When you browse on this site, cookies collect data to enhance your experience and personalize the content and advertising you see.
Visit our Privacy Policy to learn more. By continuing to use the site, you agree to this use of cookies and data.
  • In Czech Republic
  • List of Countries
  • For 7 days
  • Water Temperature
  • Weather Map
  • Weather Widgets
  • user-avatar
    Login

    Hourly Weather Kankan

    Today, 20 September, Friday

    Time Temperature Precipitation Wind Pressure Humidity
    00:00 +22°C° 0.1 mm 1 mps 685 mmHg 84%
    01:00 +22°C° 0.1 mm 1 mps 685 mmHg 83%
    02:00 +21°C° 0.4 mm 1 mps 684 mmHg 84%
    03:00 +21°C° 0.4 mm 1 mps 684 mmHg 86%
    04:00 +21°C° 0.4 mm 1 mps 684 mmHg 88%
    05:00 +21°C° 0.1 mm 1 mps 684 mmHg 87%
    06:00 +21°C° 0.1 mm 1 mps 685 mmHg 87%
    07:00 +22°C° 0.1 mm 1 mps 685 mmHg 86%
    08:00 +24°C° 0 mm 1 mps 686 mmHg 79%
    09:00 +24°C° 0 mm 0 mps 687 mmHg 72%
    10:00 +26°C° 0 mm 0 mps 687 mmHg 66%
    11:00 +26°C° 0 mm 0 mps 687 mmHg 65%
    12:00 +26°C° 0 mm 0 mps 686 mmHg 65%
    13:00 +28°C° 0 mm 1 mps 686 mmHg 65%
    14:00 +28°C° 0.1 mm 1 mps 685 mmHg 63%
    15:00 +29°C° 0.1 mm 1 mps 684 mmHg 62%
    16:00 +29°C° 0.1 mm 1 mps 684 mmHg 60%
    17:00 +28°C° 0.1 mm 1 mps 684 mmHg 66%
    18:00 +24°C° 0.1 mm 0 mps 684 mmHg 71%
    19:00 +22°C° 0.1 mm 0 mps 684 mmHg 77%
    20:00 +22°C° 0 mm 0 mps 684 mmHg 78%
    21:00 +21°C° 0 mm 0 mps 684 mmHg 79%
    22:00 +23°C° 0 mm 1 mps 685 mmHg 80%
    23:00 +23°C° 0 mm 1 mps 684 mmHg 81%

    Tomorrow, 21 September, Saturday

    Time Temperature Precipitation Wind Pressure Humidity
    00:00 +23°C° 0 mm 1 mps 684 mmHg 81%
    01:00 +22°C° 0 mm 1 mps 684 mmHg 82%
    02:00 +22°C° 0 mm 1 mps 684 mmHg 82%
    03:00 +22°C° 0 mm 1 mps 684 mmHg 82%
    04:00 +22°C° 0 mm 1 mps 684 mmHg 83%
    05:00 +22°C° 0 mm 1 mps 684 mmHg 84%
    06:00 +22°C° 0 mm 1 mps 685 mmHg 85%
    07:00 +22°C° 0 mm 1 mps 685 mmHg 86%
    08:00 +24°C° 0 mm 1 mps 686 mmHg 79%
    09:00 +27°C° 0 mm 1 mps 686 mmHg 72%
    10:00 +29°C° 0 mm 1 mps 687 mmHg 65%
    11:00 +30°C° 0 mm 1 mps 686 mmHg 60%
    12:00 +31°C° 0 mm 1 mps 686 mmHg 54%
    13:00 +32°C° 0 mm 2 mps 686 mmHg 49%
    14:00 +32°C° 0.2 mm 2 mps 685 mmHg 51%
    15:00 +32°C° 0.2 mm 2 mps 684 mmHg 53%
    16:00 +31°C° 0.2 mm 2 mps 684 mmHg 55%
    17:00 +29°C° 0.3 mm 2 mps 684 mmHg 63%
    18:00 +27°C° 0.3 mm 1 mps 683 mmHg 70%
    19:00 +25°C° 0.3 mm 1 mps 683 mmHg 78%
    20:00 +24°C° 0.1 mm 1 mps 684 mmHg 79%
    21:00 +24°C° 0.1 mm 1 mps 684 mmHg 80%
    22:00 +24°C° 0.1 mm 1 mps 684 mmHg 81%
    23:00 +23°C° 0 mm 1 mps 684 mmHg 83%

    Day after tomorrow, 22 September, Sunday

    Time Temperature Precipitation Wind Pressure Humidity
    00:00 +23°C° 0 mm 1 mps 684 mmHg 84%
    01:00 +23°C° 0 mm 1 mps 684 mmHg 85%
    02:00 +21°C° 0 mm 2 mps 684 mmHg 87%
    03:00 +21°C° 0 mm 2 mps 683 mmHg 88%
    04:00 +21°C° 0 mm 2 mps 683 mmHg 90%
    05:00 +21°C° 0 mm 2 mps 683 mmHg 90%
    06:00 +21°C° 0 mm 2 mps 684 mmHg 90%
    07:00 +21°C° 0 mm 2 mps 684 mmHg 90%
    08:00 +25°C° 0 mm 2 mps 685 mmHg 81%
    09:00 +27°C° 0 mm 2 mps 686 mmHg 73%
    10:00 +29°C° 0 mm 1 mps 686 mmHg 65%
    11:00 +31°C° 0 mm 2 mps 686 mmHg 58%
    12:00 +32°C° 0 mm 2 mps 685 mmHg 52%
    13:00 +34°C° 0 mm 2 mps 685 mmHg 45%
    14:00 +34°C° 0 mm 2 mps 684 mmHg 47%
    15:00 +34°C° 0 mm 2 mps 684 mmHg 48%
    16:00 +34°C° 0 mm 2 mps 684 mmHg 49%
    17:00 +30°C° 0.5 mm 2 mps 683 mmHg 56%
    18:00 +28°C° 0.5 mm 2 mps 683 mmHg 64%
    19:00 +25°C° 0.5 mm 2 mps 683 mmHg 72%
    20:00 +24°C° 0.7 mm 2 mps 683 mmHg 77%
    21:00 +23°C° 0.7 mm 2 mps 684 mmHg 82%
    22:00 +21°C° 0.7 mm 2 mps 684 mmHg 87%
    23:00 +21°C° 0 mm 2 mps 684 mmHg 85%

    23 September, Monday

    Time Temperature Precipitation Wind Pressure Humidity
    00:00 +23°C° 0 mm 2 mps 684 mmHg 83%
    01:00 +23°C° 0 mm 1 mps 684 mmHg 81%
    02:00 +23°C° 0 mm 1 mps 684 mmHg 81%
    03:00 +22°C° 0 mm 1 mps 684 mmHg 81%
    04:00 +22°C° 0 mm 1 mps 683 mmHg 81%
    05:00 +22°C° 0 mm 1 mps 684 mmHg 81%
    06:00 +22°C° 0 mm 1 mps 684 mmHg 81%
    07:00 +23°C° 0 mm 1 mps 684 mmHg 81%
    08:00 +24°C° 0 mm 1 mps 685 mmHg 78%
    09:00 +25°C° 0 mm 1 mps 685 mmHg 74%
    10:00 +24°C° 0 mm 0 mps 686 mmHg 71%
    11:00 +28°C° 0.1 mm 1 mps 686 mmHg 66%
    12:00 +29°C° 0.1 mm 2 mps 685 mmHg 62%
    13:00 +30°C° 0.1 mm 2 mps 685 mmHg 57%
    14:00 +30°C° 0 mm 2 mps 685 mmHg 55%
    15:00 +31°C° 0 mm 2 mps 684 mmHg 54%
    16:00 +31°C° 0 mm 1 mps 684 mmHg 53%
    17:00 +29°C° 0 mm 1 mps 684 mmHg 58%
    18:00 +28°C° 0 mm 1 mps 684 mmHg 64%
    19:00 +24°C° 0 mm 0 mps 684 mmHg 70%
    20:00 +25°C° 0.1 mm 1 mps 684 mmHg 73%
    21:00 +24°C° 0.1 mm 1 mps 684 mmHg 77%
    22:00 +24°C° 0.1 mm 1 mps 685 mmHg 80%
    23:00 +23°C° 0.3 mm 1 mps 685 mmHg 83%

    24 September, Tuesday

    Time Temperature Precipitation Wind Pressure Humidity
    00:00 +23°C° 0.3 mm 1 mps 685 mmHg 86%
    01:00 +22°C° 0.3 mm 1 mps 685 mmHg 89%
    02:00 +22°C° 0 mm 1 mps 685 mmHg 88%
    03:00 +21°C° 0 mm 2 mps 684 mmHg 88%
    04:00 +21°C° 0 mm 2 mps 684 mmHg 87%
    05:00 +21°C° 0 mm 2 mps 685 mmHg 88%
    06:00 +21°C° 0 mm 2 mps 685 mmHg 88%
    07:00 +21°C° 0 mm 2 mps 685 mmHg 89%
    08:00 +25°C° 0 mm 1 mps 686 mmHg 80%
    09:00 +27°C° 0 mm 1 mps 687 mmHg 71%
    10:00 +29°C° 0 mm 1 mps 688 mmHg 62%
    11:00 +31°C° 0 mm 1 mps 687 mmHg 57%
    12:00 +32°C° 0 mm 1 mps 687 mmHg 52%
    13:00 +33°C° 0 mm 1 mps 686 mmHg 47%
    14:00 +33°C° 0.3 mm 1 mps 685 mmHg 49%
    15:00 +32°C° 0.3 mm 2 mps 685 mmHg 51%
    16:00 +32°C° 0.3 mm 2 mps 684 mmHg 53%
    17:00 +29°C° 1.6 mm 2 mps 684 mmHg 63%
    18:00 +27°C° 1.6 mm 2 mps 684 mmHg 73%
    19:00 +24°C° 1.6 mm 1 mps 683 mmHg 84%
    20:00 +24°C° 1.6 mm 1 mps 684 mmHg 87%
    21:00 +23°C° 1.6 mm 1 mps 684 mmHg 89%
    22:00 +23°C° 1.6 mm 1 mps 685 mmHg 92%
    23:00 +21°C° 0.2 mm 2 mps 684 mmHg 90%

    25 September, Wednesday

    Time Temperature Precipitation Wind Pressure Humidity
    00:00 +21°C° 0.2 mm 2 mps 684 mmHg 89%
    01:00 +21°C° 0.2 mm 2 mps 684 mmHg 88%
    02:00 +22°C° 0 mm 1 mps 683 mmHg 88%
    03:00 +22°C° 0 mm 1 mps 683 mmHg 87%
    04:00 +22°C° 0 mm 1 mps 683 mmHg 87%
    05:00 +22°C° 0 mm 1 mps 684 mmHg 88%
    06:00 +22°C° 0 mm 1 mps 684 mmHg 88%
    07:00 +21°C° 0 mm 2 mps 685 mmHg 89%
    08:00 +24°C° 0 mm 1 mps 685 mmHg 82%
    09:00 +26°C° 0 mm 1 mps 686 mmHg 74%
    10:00 +29°C° 0 mm 1 mps 687 mmHg 67%
    11:00 +29°C° 0.3 mm 1 mps 686 mmHg 64%
    12:00 +30°C° 0.3 mm 1 mps 686 mmHg 61%
    13:00 +31°C° 0.3 mm 2 mps 685 mmHg 57%
    14:00 +30°C° 1.7 mm 2 mps 685 mmHg 63%
    15:00 +29°C° 1.7 mm 2 mps 684 mmHg 68%
    16:00 +28°C° 1.7 mm 2 mps 683 mmHg 73%
    17:00 +26°C° 3 mm 2 mps 683 mmHg 80%
    18:00 +24°C° 3 mm 3 mps 683 mmHg 86%
    19:00 +21°C° 3 mm 3 mps 683 mmHg 92%
    20:00 +21°C° 1.9 mm 3 mps 684 mmHg 92%
    21:00 +20°C° 1.9 mm 2 mps 684 mmHg 92%
    22:00 +21°C° 1.9 mm 1 mps 685 mmHg 92%
    23:00 +21°C° 0.2 mm 1 mps 684 mmHg 90%
    Show more